Location: Squirrel Cove
(50.1074°N, 124.9139°W)
Time: 00:02:19
(UTC-08:00)

BlueWalker 3 - Pass Details

Date: 05 December 2022
Orbit: 499 x 517 km, 53.2° (Epoch: 29 January)

Event Time Altitude Azimuth Distance (km) Brightness Sun altitude
Rises 18:08:50 0° 288° (WNW) 2,633 6.6 -16.8°
Reaches altitude 10° 18:11:03 10° 291° (WNW) 1,741 5.5 -17.1°
Maximum altitude 18:14:59 68° 15° (NNE) 554 1.9 -17.7°
Enters shadow 18:16:02 45° 81° (E) 707 2.2 -17.9°
